• In Deutschland
  • Länderverzeichnis
  • Für 7 Tage
  • Wassertemperatur
  • Satellitenkarten
  • Wetterkarte
  • Widgets
  • user-avatar
    Anmelden

    Stündliche Wetter Jequitinhonha

    Heute, 22 Oktober, Montag

    Zeit Temperatur Niederschläge Wind Luftdruck Luftfeuchtigkeit
    00:00 +22°C° 0 mm 1 m/S 744 mmHg 90%
    01:00 +22°C° 0.1 mm 1 m/S 743 mmHg 91%
    02:00 +22°C° 0.1 mm 1 m/S 743 mmHg 91%
    03:00 +21°C° 0 mm 1 m/S 743 mmHg 93%
    04:00 +22°C° 0.3 mm 1 m/S 743 mmHg 93%
    05:00 +22°C° 0.3 mm 1 m/S 743 mmHg 92%
    06:00 +22°C° 0.3 mm 1 m/S 744 mmHg 92%
    07:00 +23°C° 0.2 mm 1 m/S 744 mmHg 87%
    08:00 +24°C° 0.2 mm 1 m/S 744 mmHg 83%
    09:00 +26°C° 0 mm 1 m/S 745 mmHg 76%
    10:00 +26°C° 0.2 mm 1 m/S 745 mmHg 76%
    11:00 +26°C° 0.2 mm 1 m/S 745 mmHg 76%
    12:00 +26°C° 0.2 mm 1 m/S 744 mmHg 76%
    13:00 +26°C° 0.4 mm 1 m/S 744 mmHg 79%
    14:00 +25°C° 0.4 mm 1 m/S 744 mmHg 82%
    15:00 +25°C° 0.4 mm 1 m/S 743 mmHg 85%
    16:00 +24°C° 0.3 mm 1 m/S 743 mmHg 87%
    17:00 +24°C° 0.3 mm 1 m/S 743 mmHg 89%
    18:00 +23°C° 0.3 mm 1 m/S 743 mmHg 90%
    19:00 +23°C° 0.1 mm 2 m/S 743 mmHg 90%
    20:00 +23°C° 0.1 mm 2 m/S 744 mmHg 90%
    21:00 +23°C° 0.1 mm 2 m/S 744 mmHg 90%
    22:00 +23°C° 0 mm 2 m/S 744 mmHg 90%
    23:00 +21°C° 0 mm 2 m/S 744 mmHg 90%

    Morgen, 23 Oktober, Dienstag

    Zeit Temperatur Niederschläge Wind Luftdruck Luftfeuchtigkeit
    00:00 +21°C° 0 mm 2 m/S 744 mmHg 90%
    01:00 +22°C° 0 mm 1 m/S 744 mmHg 91%
    02:00 +22°C° 0 mm 1 m/S 743 mmHg 91%
    03:00 +22°C° 0 mm 1 m/S 743 mmHg 92%
    04:00 +22°C° 0 mm 1 m/S 743 mmHg 91%
    05:00 +22°C° 0 mm 1 m/S 743 mmHg 91%
    06:00 +22°C° 0 mm 1 m/S 743 mmHg 91%
    07:00 +24°C° 0 mm 1 m/S 744 mmHg 81%
    08:00 +26°C° 0 mm 1 m/S 744 mmHg 71%
    09:00 +28°C° 0 mm 2 m/S 744 mmHg 61%
    10:00 +29°C° 0 mm 2 m/S 744 mmHg 57%
    11:00 +30°C° 0 mm 2 m/S 744 mmHg 53%
    12:00 +32°C° 0 mm 2 m/S 743 mmHg 49%
    13:00 +31°C° 0 mm 2 m/S 742 mmHg 50%
    14:00 +31°C° 0 mm 2 m/S 742 mmHg 52%
    15:00 +31°C° 0 mm 2 m/S 741 mmHg 53%
    16:00 +30°C° 0 mm 2 m/S 741 mmHg 58%
    17:00 +28°C° 0 mm 2 m/S 741 mmHg 63%
    18:00 +27°C° 0 mm 1 m/S 741 mmHg 68%
    19:00 +26°C° 0 mm 1 m/S 742 mmHg 72%
    20:00 +26°C° 0 mm 1 m/S 742 mmHg 76%
    21:00 +25°C° 0 mm 1 m/S 743 mmHg 80%
    22:00 +24°C° 0 mm 1 m/S 743 mmHg 83%
    23:00 +24°C° 0 mm 1 m/S 743 mmHg 86%

    übermorgen, 24 Oktober, Mittwoch

    Zeit Temperatur Niederschläge Wind Luftdruck Luftfeuchtigkeit
    00:00 +23°C° 0 mm 1 m/S 743 mmHg 89%
    01:00 +23°C° 0 mm 1 m/S 743 mmHg 90%
    02:00 +22°C° 0 mm 1 m/S 742 mmHg 92%
    03:00 +22°C° 0 mm 1 m/S 742 mmHg 93%
    04:00 +22°C° 0 mm 1 m/S 742 mmHg 91%
    05:00 +23°C° 0 mm 1 m/S 742 mmHg 90%
    06:00 +23°C° 0 mm 1 m/S 742 mmHg 88%
    07:00 +25°C° 0 mm 1 m/S 743 mmHg 77%
    08:00 +28°C° 0 mm 1 m/S 743 mmHg 67%
    09:00 +30°C° 0 mm 1 m/S 743 mmHg 56%
    10:00 +32°C° 0 mm 1 m/S 743 mmHg 52%
    11:00 +34°C° 0 mm 2 m/S 743 mmHg 48%
    12:00 +35°C° 0 mm 2 m/S 742 mmHg 44%
    13:00 +35°C° 0.1 mm 2 m/S 741 mmHg 45%
    14:00 +35°C° 0.1 mm 2 m/S 740 mmHg 46%
    15:00 +35°C° 0.1 mm 2 m/S 739 mmHg 47%
    16:00 +32°C° 0 mm 2 m/S 740 mmHg 53%
    17:00 +31°C° 0 mm 2 m/S 740 mmHg 60%
    18:00 +29°C° 0 mm 2 m/S 740 mmHg 67%
    19:00 +28°C° 0.1 mm 2 m/S 741 mmHg 73%
    20:00 +27°C° 0.1 mm 2 m/S 741 mmHg 80%
    21:00 +26°C° 0.1 mm 2 m/S 742 mmHg 86%
    22:00 +25°C° 0 mm 2 m/S 742 mmHg 88%
    23:00 +25°C° 0 mm 1 m/S 742 mmHg 90%

    25 Oktober, Donnerstag

    Zeit Temperatur Niederschläge Wind Luftdruck Luftfeuchtigkeit
    00:00 +25°C° 0 mm 1 m/S 741 mmHg 92%
    01:00 +24°C° 0 mm 1 m/S 741 mmHg 93%
    02:00 +24°C° 0 mm 1 m/S 741 mmHg 93%
    03:00 +24°C° 0 mm 1 m/S 740 mmHg 94%
    04:00 +24°C° 0 mm 1 m/S 740 mmHg 92%
    05:00 +24°C° 0 mm 1 m/S 741 mmHg 91%
    06:00 +24°C° 0 mm 2 m/S 741 mmHg 89%
    07:00 +26°C° 0 mm 2 m/S 741 mmHg 76%
    08:00 +29°C° 0 mm 2 m/S 742 mmHg 63%
    09:00 +31°C° 0 mm 2 m/S 742 mmHg 50%
    10:00 +34°C° 0 mm 2 m/S 741 mmHg 45%
    11:00 +36°C° 0 mm 2 m/S 741 mmHg 39%
    12:00 +38°C° 0 mm 2 m/S 740 mmHg 34%
    13:00 +37°C° 0 mm 2 m/S 740 mmHg 36%
    14:00 +37°C° 0 mm 2 m/S 739 mmHg 38%
    15:00 +36°C° 0 mm 2 m/S 738 mmHg 40%
    16:00 +34°C° 0.7 mm 2 m/S 738 mmHg 50%
    17:00 +31°C° 0.7 mm 2 m/S 739 mmHg 59%
    18:00 +29°C° 0.7 mm 2 m/S 739 mmHg 68%
    19:00 +28°C° 2.3 mm 2 m/S 740 mmHg 75%
    20:00 +27°C° 2.3 mm 1 m/S 740 mmHg 82%
    21:00 +27°C° 2.3 mm 1 m/S 741 mmHg 89%
    22:00 +26°C° 1.3 mm 1 m/S 741 mmHg 90%
    23:00 +26°C° 1.3 mm 1 m/S 740 mmHg 91%

    26 Oktober, Freitag

    Zeit Temperatur Niederschläge Wind Luftdruck Luftfeuchtigkeit
    00:00 +26°C° 1.3 mm 1 m/S 740 mmHg 93%
    01:00 +25°C° 0.5 mm 1 m/S 740 mmHg 94%
    02:00 +25°C° 0.5 mm 1 m/S 739 mmHg 94%
    03:00 +25°C° 0.5 mm 1 m/S 739 mmHg 95%
    04:00 +25°C° 0.2 mm 1 m/S 739 mmHg 95%
    05:00 +25°C° 0.2 mm 1 m/S 740 mmHg 94%
    06:00 +25°C° 0.2 mm 1 m/S 740 mmHg 94%
    07:00 +26°C° 0.1 mm 2 m/S 740 mmHg 87%
    08:00 +28°C° 0.1 mm 2 m/S 740 mmHg 79%
    09:00 +29°C° 0.1 mm 2 m/S 740 mmHg 71%
    10:00 +31°C° 0.1 mm 2 m/S 740 mmHg 64%
    11:00 +34°C° 0.1 mm 2 m/S 739 mmHg 57%
    12:00 +35°C° 0.1 mm 2 m/S 739 mmHg 49%
    13:00 +35°C° 0.4 mm 2 m/S 738 mmHg 51%
    14:00 +35°C° 0.4 mm 2 m/S 738 mmHg 53%
    15:00 +34°C° 0.4 mm 2 m/S 737 mmHg 55%
    16:00 +32°C° 0.4 mm 2 m/S 737 mmHg 60%
    17:00 +31°C° 0.4 mm 1 m/S 737 mmHg 66%
    18:00 +29°C° 0.4 mm 1 m/S 738 mmHg 71%
    19:00 +29°C° 0 mm 1 m/S 738 mmHg 73%
    20:00 +28°C° 0 mm 1 m/S 738 mmHg 76%
    21:00 +28°C° 0 mm 1 m/S 739 mmHg 79%
    22:00 +27°C° 0 mm 2 m/S 739 mmHg 81%
    23:00 +27°C° 0 mm 2 m/S 738 mmHg 84%

    27 Oktober, Samstag

    Zeit Temperatur Niederschläge Wind Luftdruck Luftfeuchtigkeit
    00:00 +26°C° 0 mm 2 m/S 738 mmHg 86%
    01:00 +26°C° 0.2 mm 2 m/S 738 mmHg 88%
    02:00 +26°C° 0.2 mm 1 m/S 738 mmHg 90%
    03:00 +25°C° 0.2 mm 1 m/S 737 mmHg 92%
    04:00 +25°C° 0.1 mm 1 m/S 738 mmHg 91%
    05:00 +26°C° 0.1 mm 1 m/S 738 mmHg 91%
    06:00 +26°C° 0.1 mm 1 m/S 739 mmHg 90%
    07:00 +26°C° 0.6 mm 1 m/S 739 mmHg 88%
    08:00 +27°C° 0.6 mm 2 m/S 739 mmHg 87%
    09:00 +27°C° 0.6 mm 2 m/S 739 mmHg 85%
    10:00 +29°C° 0.4 mm 2 m/S 739 mmHg 77%
    11:00 +31°C° 0.4 mm 2 m/S 738 mmHg 69%
    12:00 +34°C° 0.4 mm 2 m/S 737 mmHg 62%
    13:00 +35°C° 0 mm 3 m/S 737 mmHg 55%
    14:00 +37°C° 0 mm 3 m/S 736 mmHg 48%
    15:00 +38°C° 0 mm 3 m/S 735 mmHg 41%
    16:00 +36°C° 0 mm 3 m/S 735 mmHg 46%
    17:00 +35°C° 0 mm 2 m/S 736 mmHg 51%
    18:00 +32°C° 0 mm 1 m/S 736 mmHg 57%
    19:00 +31°C° 0 mm 1 m/S 736 mmHg 60%
    20:00 +30°C° 0 mm 1 m/S 737 mmHg 63%
    21:00 +29°C° 0 mm 1 m/S 737 mmHg 66%
    22:00 +29°C° 0.2 mm 1 m/S 737 mmHg 70%
    23:00 +28°C° 0.2 mm 1 m/S 737 mmHg 75%

    28 Oktober, Sonntag

    Zeit Temperatur Niederschläge Wind Luftdruck Luftfeuchtigkeit
    00:00 +27°C° 0.2 mm 1 m/S 737 mmHg 80%
    01:00 +27°C° 1.4 mm 1 m/S 737 mmHg 84%
    02:00 +26°C° 1.4 mm 1 m/S 737 mmHg 88%
    03:00 +26°C° 1.4 mm 1 m/S 737 mmHg 92%
    04:00 +26°C° 0.2 mm 1 m/S 738 mmHg 92%
    05:00 +26°C° 0.2 mm 1 m/S 738 mmHg 92%
    06:00 +24°C° 0.2 mm 0 m/S 738 mmHg 91%
    07:00 +28°C° 0.1 mm 1 m/S 739 mmHg 83%
    08:00 +30°C° 0.1 mm 1 m/S 739 mmHg 75%
    09:00 +32°C° 0.1 mm 1 m/S 739 mmHg 68%
    10:00 +34°C° 0.4 mm 2 m/S 739 mmHg 64%
    11:00 +34°C° 0.4 mm 2 m/S 739 mmHg 61%
    12:00 +35°C° 0.4 mm 3 m/S 738 mmHg 57%
    13:00 +35°C° 0.5 mm 3 m/S 738 mmHg 59%
    14:00 +34°C° 0.5 mm 3 m/S 737 mmHg 60%
    15:00 +34°C° 0.5 mm 3 m/S 737 mmHg 62%
    16:00 +31°C° 1 mm 2 m/S 737 mmHg 68%
    17:00 +30°C° 1 mm 2 m/S 737 mmHg 75%
    18:00 +28°C° 1 mm 2 m/S 738 mmHg 81%
    19:00 +28°C° 0.3 mm 2 m/S 738 mmHg 85%
    20:00 +27°C° 0.3 mm 2 m/S 739 mmHg 88%
    21:00 +26°C° 0.3 mm 2 m/S 739 mmHg 92%
    22:00 +26°C° 1.3 mm 2 m/S 739 mmHg 93%
    23:00 +26°C° 1.3 mm 2 m/S 739 mmHg 93%
    Mehr zeigen